Regional Weather Roundup
Issued by NWS

Home | Current Version | Previous Version | Text Only | Print | Product List | Glossary On
Versions: 1 2 3 4 5 6 7 8 9 10 11 12 13 14 15 16 17 18 19 20 21 22 23 24 25 26 27 28 29 30 31 32 33 34 35 36 37 38 39 40 41 42 43 44 45 46 47 48 49 50
000
ASUS44 KBMX 040810
RWRAL

ALABAMA REGIONAL WEATHER ROUNDUP
NATIONAL WEATHER SERVICE BIRMINGHAM AL
200 AM CST WED MAR 04 2015

NOTE: "FAIR" INDICATES FEW OR NO CLOUDS BELOW 12,000 FEET
WITH NO SIGNIFICANT WEATHER AND/OR OBSTRUCTIONS TO VISIBILITY.

THE REMARK "TC" DENOTES TEMPERATURE IN DEGREES CELSIUS.

ALZ001>011-014-016>018-020-040900-
NORTH ALABAMA

CITY           SKY/WX    TMP DP  RH WIND       PRES   REMARKS
MUSCLE SHOALS  CLOUDY    65  62  90 SW10      29.92F
HUNTSVILLE     LGT RAIN  65  62  90 SW13      29.93F
DECATUR        LGT RAIN  63  62  97 S14       29.94F
HALEYVILLE       N/A     63  63 100 SW10G20   29.98S
GADSDEN        CLOUDY    52  48  87 CALM      30.00S
$$

ALZ012-013-022-023-030>036-040>044-040900-
WEST CENTRAL ALABAMA

CITY           SKY/WX    TMP DP  RH WIND       PRES   REMARKS
TUSCALOOSA     CLOUDY    64  62  93 S10       30.01F FOG
$$

ALZ015-024>027-033>036-040>044-040900-
CENTRAL ALABAMA

CITY           SKY/WX    TMP DP  RH WIND       PRES   REMARKS
BIRMINGHAM     CLOUDY    63  60  90 SW12      30.03S
MONTGOMERY     CLOUDY    65  61  87 MISG      30.04F
SHELBY CO ARPT CLOUDY    63  61  93 S12       30.03S
MAXWELL AFB    CLOUDY    64  63  94 S6        30.03F
GREENVILLE     CLOUDY    63  62  97 S6        30.03F FOG
$$

ALZ019-021-028-029-037-038-045>048-040900-
EAST CENTRAL ALABAMA

CITY           SKY/WX    TMP DP  RH WIND       PRES   REMARKS
ANNISTON       CLOUDY    63  58  83 VRB3      30.02F
ALEXANDER CITY MOCLDY    64  60  85 S3        30.04S
AUBURN         MOCLDY    59  55  88 SW7       30.08S
$$

ALZ051>064-040900-
SOUTHWEST ALABAMA

CITY           SKY/WX    TMP DP  RH WIND       PRES   REMARKS
MOBILE         CLOUDY    65  65 100 SE7       30.03F FOG
BROOKLEY FIELD CLOUDY    64  64 100 S7        30.04S FOG
EVERGREEN      CLOUDY    65  63  93 S6        30.04F
$$

ALZ049-050-065>069-040900-
SOUTHEAST ALABAMA

CITY           SKY/WX    TMP DP  RH WIND       PRES   REMARKS
DOTHAN         CLOUDY    61  61 100 SW10      30.10F
OZARK          CLOUDY    62  58  87 S9        30.06F
TROY           MOCLDY    62  60  93 S6        30.06F
EUFAULA        FAIR      59  58  96 S5        30.05F FOG
$$


USA.gov is the U.S. government's official web portal to all federal, state and local government web resources and services.